Orbital Elements at Epoch 2459000.5 (2020-May-31.0) TDB
Reference: JPL 15 (heliocentric ecliptic J2000)
Element | Value | Uncertainty (1-sigma) | Units |
e | .1198115661280648 | 5.1728e-08 | |
a | 2.700413795497319 | 1.9877e-08 | au |
q | 2.376872989464954 | 1.3985e-07 | au |
i | 3.294536400010549 | 5.8771e-06 | deg |
node | 182.96302149 | 9.1786e-05 | deg |
peri | 3.10906103273627 | 9.4456e-05 | deg |
M | 210.343832966649 | 2.3784e-05 | deg |
tp | 2459674.307779785534 (2022-Apr-04.80777979) | 0.00011044 | TDB |
period | 1620.854025138404 4.44 | 1.7896e-05 4.9e-08 | d yr |
n | .2221051337237231 | 2.4523e-09 | deg/d |
Q | 3.023954601529684 | 2.2259e-08 | au |
|
| | Orbit Determination Parameters
Additional Information
|